[[{"header":{"parameterUnit":"m.s-1","parameterCategory":2,"la1":30.2991,"la2":30.254,"lo1":-89.0895,"lo2":-89.0444,"dy":0.0017,"dx":0.0017,"nx":28,"ny":28,"refTime":"2024-12-24T03:00:00:Z","depth":"0","parameterNumber":2,"parameterNumberName":"U-component_of_CURRENTS"},"data":[0,0,0,0,0,0,0,0,0,0,0,0,0,0,0,0,0,0,0,0,0,0,0,0,0,0,0,0,0,0,0,0,0,0,0,0,0,0,0,0,0,0,0,0,0,0,0,0,0,0,0,0,0,0,0,0,0,0,-0.254,-0.2539,0,-0.2417,-0.2415,-0.2414,-0.2327,-0.2327,-0.2326,-0.2326,-0.2192,-0.2189,-0.2186,0,0,0,0,0,0,0,0,0,0,0,0,0,-0.262,-0.262,-0.2541,-0.2539,-0.2538,-0.2417,-0.2415,-0.2413,-0.2327,-0.2327,-0.2326,-0.2326,-0.2193,-0.219,-0.2186,0,0,0,0,0,0,0,0,0,0,0,0,0,-0.2548,-0.2619,-0.2541,-0.2482,-0.2476,-0.2418,-0.2415,-0.2413,-0.2328,-0.2327,-0.2326,-0.2326,-0.2194,-0.219,-0.2185,-0.217,0,0,-0.2171,-0.2169,0,0,0,0,0,0,0,0,-0.2553,-0.2545,-0.2492,-0.2486,-0.2479,-0.2389,-0.2394,-0.2332,-0.2328,-0.2381,-0.2326,-0.2325,-0.2259,-0.2249,-0.2224,-0.2164,-0.2158,-0.2171,-0.2168,-0.2166,-0.2164,0,0,0,0,0,0,0,-0.2558,-0.255,-0.2489,-0.2491,-0.2483,-0.2434,-0.2424,-0.2382,-0.2324,-0.2377,-0.2371,-0.2361,-0.2255,-0.2229,-0.222,-0.2156,-0.2171,-0.2166,-0.2164,-0.2162,-0.2074,-0.2074,0,0,0,0,0,0,-0.2583,-0.2555,-0.2493,-0.2486,-0.2517,-0.2434,-0.2422,-0.2417,-0.2324,-0.231,-0.2362,-0.2357,-0.2237,-0.2226,-0.2215,-0.2184,-0.2166,-0.2161,-0.2159,-0.2073,-0.2074,-0.2074,0,0,0,0,0,0,-0.2585,-0.2579,-0.2498,-0.2519,-0.2505,-0.2434,-0.2428,-0.2415,-0.2396,-0.2313,-0.2298,-0.2358,-0.2236,-0.2222,-0.218,-0.2178,-0.2159,-0.2155,-0.2073,-0.2073,-0.2074,-0.2126,0,0,0,0,0,0,-0.2588,-0.258,-0.2592,-0.2521,-0.2505,-0.2472,-0.2429,-0.2413,-0.2391,-0.2385,-0.2305,-0.2291,-0.2235,-0.2188,-0.2176,-0.2171,-0.2151,-0.2072,-0.2073,-0.2074,-0.2123,-0.2128,-0.2132,0,0,0,0,0,-0.2591,-0.2603,-0.2593,-0.2586,-0.2522,-0.2473,-0.246,-0.2404,-0.2393,-0.2386,-0.2332,-0.2294,-0.2185,-0.2184,-0.217,-0.2164,-0.2072,-0.2073,-0.2074,-0.2121,-0.2127,-0.2132,0,0,0,0,0,0,-0.2644,-0.2594,-0.2581,-0.2579,-0.2537,-0.2459,-0.2445,-0.242,-0.2372,-0.2364,-0.2296,-0.2278,-0.2242,-0.2204,-0.2205,-0.2144,-0.2124,-0.2123,-0.2165,-0.217,-0.2174,-0.2166,-0.2147,0,0,0,0,0,-0.2665,-0.2659,-0.2605,-0.2604,-0.2584,-0.2524,-0.2501,-0.2465,-0.2411,-0.2389,-0.2333,-0.2278,-0.2234,-0.2205,-0.2157,-0.2125,-0.2084,-0.2115,-0.2119,-0.2123,-0.2108,-0.2047,-0.2044,-0.2078,-0.2078,-0.2078,0,0,-0.2677,-0.2658,-0.2649,-0.2615,-0.2573,-0.253,-0.2507,-0.2473,-0.2438,-0.2384,-0.2325,-0.2293,-0.2232,-0.2188,-0.2169,-0.2155,-0.2098,-0.2124,-0.2128,-0.211,-0.2047,-0.2044,-0.204,-0.2079,-0.2079,-0.2078,0,0,-0.2672,-0.2689,-0.2659,-0.2635,-0.2588,-0.2553,-0.2552,-0.2483,-0.2456,-0.2409,-0.2363,-0.2335,-0.2257,-0.2212,-0.2181,-0.2187,-0.2128,-0.2177,-0.2181,-0.2123,-0.2119,-0.2115,-0.2086,-0.2079,-0.2174,-0.2174,-0.2174,0,-0.2683,-0.2639,-0.2645,-0.261,-0.2575,-0.2566,-0.251,-0.2494,-0.2422,-0.239,-0.2396,-0.2287,-0.2263,-0.2196,-0.2208,-0.2195,-0.2155,-0.2166,-0.2127,-0.2122,-0.2117,-0.2088,-0.2079,-0.2177,-0.2176,-0.2176,-0.2176,0,-0.2619,-0.2604,-0.2589,-0.2537,-0.2524,-0.2478,-0.2457,-0.2442,-0.2424,-0.2385,-0.233,-0.23,-0.2228,-0.2237,-0.2226,-0.218,-0.2164,-0.2145,-0.2112,-0.2117,-0.2086,-0.2076,-0.218,-0.2179,-0.2179,-0.2178,0,0,-0.2542,-0.2536,-0.2523,-0.249,-0.2471,-0.2436,-0.2426,-0.2367,-0.2336,-0.2312,-0.2247,-0.2229,-0.2221,-0.2189,-0.218,-0.2154,-0.2128,-0.2143,-0.2139,-0.2111,-0.2008,-0.1987,-0.1974,-0.2091,-0.2089,-0.2088,-0.2011,0,-0.2454,-0.2386,-0.2408,-0.2336,-0.2284,-0.2311,-0.2295,-0.2275,-0.2264,-0.222,-0.2212,-0.216,-0.22,-0.2177,-0.216,-0.2131,-0.2099,-0.2151,-0.2009,-0.2005,-0.1983,-0.1961,-0.1879,-0.1801,-0.2,-0.1999,-0.1997,0,-0.2327,-0.2305,-0.2226,-0.2214,-0.2193,-0.2172,-0.2136,-0.2124,-0.2114,-0.2107,-0.2083,-0.2078,-0.206,-0.2092,-0.2034,-0.206,-0.2036,-0.2021,-0.2017,-0.1964,-0.1964,-0.1823,-0.1775,-0.1763,-0.1982,-0.1983,-0.1984,0,-0.2198,-0.2161,-0.2095,-0.2084,-0.2083,-0.2062,-0.2063,-0.2068,-0.2061,-0.2036,-0.2028,-0.1991,-0.1982,-0.1942,-0.1965,-0.1978,-0.1896,-0.1899,-0.1849,-0.1849,-0.1733,-0.1725,-0.1647,-0.1824,-0.1825,-0.1825,-0.1825,0,-0.2058,-0.2003,-0.2035,-0.1989,-0.1935,-0.197,-0.1924,-0.1936,-0.1948,-0.193,-0.1962,-0.1944,-0.1944,-0.1921,-0.1918,-0.1864,-0.1851,-0.1835,-0.1813,-0.1754,-0.175,-0.1697,-0.1718,-0.1822,-0.1823,-0.1823,-0.1824,0,-0.1917,-0.1932,-0.1865,-0.1865,-0.1871,-0.1834,-0.187,-0.185,-0.188,-0.1864,-0.1859,-0.1891,-0.1866,-0.1868,-0.1813,-0.1804,-0.1717,-0.173,-0.1686,-0.166,-0.16,-0.1627,-0.1511,-0.1474,-0.164,-0.1639,-0.1638,0,-0.183,-0.1778,-0.178,-0.1768,-0.1768,-0.1751,-0.1754,-0.18,-0.1801,-0.1833,-0.1815,-0.1809,-0.1792,-0.173,-0.1696,-0.1643,-0.1654,-0.1543,-0.1551,-0.1569,-0.1583,-0.1608,-0.1587,-0.1431,-0.1428,-0.1426,-0.1424,0,-0.1667,-0.1682,-0.1657,-0.1644,-0.164,-0.1639,-0.165,-0.1649,-0.1706,-0.1709,-0.1708,-0.1696,-0.1666,-0.1586,-0.1544,-0.1507,-0.1502,-0.1498,-0.1497,-0.1392,-0.1425,-0.1389,-0.1546,-0.1405,-0.1407,-0.1408,-0.1409,-0.141,-0.1561,-0.1531,-0.1524,-0.1507,-0.1516,-0.1512,-0.1479,-0.1516,-0.151,-0.1503,-0.1565,-0.1526,-0.1498,-0.1424,-0.1393,-0.1311,-0.1362,-0.1268,-0.1295,-0.1316,-0.1283,-0.1425,-0.1277,-0.1278,-0.1279,-0.128,-0.1281,0,-0.1416,-0.141,-0.1388,-0.1371,-0.1345,-0.1391,-0.1395,-0.1356,-0.1324,-0.1359,-0.1348,-0.1319,-0.1245,-0.1235,-0.117,-0.1122,-0.1103,-0.1103,-0.1103,-0.1088,-0.1172,-0.1167,-0.101,-0.101,-0.101,-0.101,-0.101,-0.101,-0.1337,-0.1281,-0.1284,-0.1203,-0.1199,-0.1131,-0.1113,-0.1088,-0.1091,-0.1053,-0.1056,-0.1086,-0.1095,-0.1149,-0.1076,-0.1028,-0.1017,-0.0981,-0.1023,-0.1083,-0.1101,-0.1118,-0.1116,-0.0952,-0.0952,-0.0883,-0.0883,-0.0882]},{"header":{"parameterUnit":"m.s-1","parameterCategory":2,"la1":30.2991,"la2":30.254,"lo1":-89.0895,"lo2":-89.0444,"dy":0.0017,"dx":0.0017,"nx":28,"ny":28,"refTime":"2024-12-24T03:00:00:Z","depth":"0","parameterNumber":3,"parameterNumberName":"V-component_of_CURRENTS"},"data":[0,0,0,0,0,0,0,0,0,0,0,0,0,0,0,0,0,0,0,0,0,0,0,0,0,0,0,0,0,0,0,0,0,0,0,0,0,0,0,0,0,0,0,0,0,0,0,0,0,0,0,0,0,0,0,0,0,0,-0.0551,-0.055,0,-0.037,-0.0368,-0.0365,-0.0279,-0.0279,-0.028,-0.028,-0.0076,-0.0071,-0.0065,0,0,0,0,0,0,0,0,0,0,0,0,0,-0.0692,-0.0691,-0.0552,-0.055,-0.0548,-0.037,-0.0367,-0.0365,-0.0279,-0.0279,-0.028,-0.028,-0.0078,-0.0071,-0.0064,0,0,0,0,0,0,0,0,0,0,0,0,0,-0.058,-0.069,-0.0552,-0.0486,-0.0479,-0.0371,-0.0367,-0.0364,-0.0279,-0.0279,-0.028,-0.0281,-0.0081,-0.0072,-0.0064,0.0004,0,0,-0.0037,-0.0033,0,0,0,0,0,0,0,0,-0.0586,-0.0574,-0.0498,-0.0491,-0.0482,-0.0351,-0.0342,-0.0241,-0.0278,-0.035,-0.028,-0.0281,-0.0168,-0.0152,-0.0111,0.0014,0.0022,-0.0036,-0.0031,-0.0027,-0.0024,0,0,0,0,0,0,0,-0.0594,-0.0581,-0.0476,-0.0496,-0.0486,-0.0421,-0.0407,-0.0322,-0.0254,-0.0344,-0.0339,-0.0324,-0.0164,-0.012,-0.0106,0.0025,-0.0036,-0.0028,-0.0023,-0.002,0.0192,0.0192,0,0,0,0,0,0,-0.0631,-0.0589,-0.0481,-0.0471,-0.0541,-0.0419,-0.0403,-0.0389,-0.0255,-0.0237,-0.0324,-0.0321,-0.0135,-0.0116,-0.0099,-0.0023,-0.0027,-0.0019,-0.0014,0.0191,0.0192,0.0192,0,0,0,0,0,0,-0.0634,-0.0623,-0.0489,-0.0528,-0.0508,-0.0417,-0.0402,-0.0386,-0.0341,-0.0241,-0.0222,-0.0298,-0.0134,-0.0111,-0.0023,-0.0015,-0.0015,-0.0007,0.0191,0.0191,0.0192,0.0136,0,0,0,0,0,0,-0.0639,-0.0625,-0.0623,-0.0531,-0.0507,-0.0418,-0.0401,-0.0382,-0.0333,-0.0327,-0.0212,-0.0193,-0.0133,-0.0037,-0.0014,-0.0002,0.0,0.019,0.0191,0.0192,0.0137,0.0134,0.0132,0,0,0,0,0,-0.0645,-0.0627,-0.0624,-0.0611,-0.0509,-0.0418,-0.0397,-0.0333,-0.0332,-0.0298,-0.0233,-0.0197,-0.0018,-0.0028,-0.0002,0.0012,0.019,0.0191,0.0192,0.0138,0.0135,0.0132,0,0,0,0,0,0,-0.0674,-0.0615,-0.0609,-0.0573,-0.0506,-0.0405,-0.0366,-0.0335,-0.0255,-0.0254,-0.0174,-0.015,-0.0075,-0.0022,-0.0036,0.0072,0.0086,0.0092,0.0036,0.0034,0.0031,0.0011,0.0007,0,0,0,0,0,-0.0689,-0.0667,-0.0595,-0.0566,-0.0536,-0.0458,-0.0415,-0.0374,-0.0296,-0.0262,-0.0188,-0.0116,-0.0049,-0.0003,0.007,0.0145,0.0171,0.0164,0.0162,0.0159,0.0159,0.0192,0.0191,0.0195,0.0195,0.0195,0,0,-0.0695,-0.0658,-0.0647,-0.0573,-0.0516,-0.0464,-0.0431,-0.0364,-0.0325,-0.0251,-0.0173,-0.0116,-0.0032,0.0042,0.0079,0.0088,0.0172,0.016,0.0157,0.0159,0.0192,0.0192,0.0191,0.0195,0.0195,0.0195,0,0,-0.0679,-0.0662,-0.0633,-0.0583,-0.0509,-0.0462,-0.045,-0.0355,-0.0316,-0.0237,-0.019,-0.013,-0.001,0.0044,0.0086,0.0115,0.0154,0.0133,0.0114,0.0145,0.0145,0.0145,0.0174,0.0177,0.0135,0.0135,0.0134,0,-0.0686,-0.065,-0.0606,-0.0559,-0.0526,-0.047,-0.0428,-0.0372,-0.0264,-0.0237,-0.0221,-0.008,-0.0011,0.0063,0.0069,0.0109,0.013,0.0118,0.014,0.0141,0.0142,0.0172,0.0176,0.0132,0.0132,0.0133,0.0133,0,-0.0643,-0.0619,-0.0591,-0.0534,-0.0489,-0.044,-0.0377,-0.0334,-0.03,-0.0249,-0.0173,-0.0087,-0.001,0.0017,0.0059,0.01,0.0113,0.0127,0.0142,0.0137,0.017,0.0175,0.0128,0.0129,0.013,0.0131,0,0,-0.0644,-0.0578,-0.057,-0.0554,-0.0478,-0.0436,-0.0388,-0.0323,-0.0303,-0.0219,-0.0182,-0.0078,-0.0052,-0.0006,0.0046,0.0079,0.0103,0.0101,0.0104,0.0119,0.0168,0.0199,0.0208,0.0115,0.0116,0.0117,0.0186,0,-0.0622,-0.0562,-0.0531,-0.0486,-0.0454,-0.0412,-0.0376,-0.032,-0.0272,-0.0221,-0.0154,-0.0092,-0.0055,-0.0026,0.001,0.0084,0.0115,0.0083,0.0181,0.0184,0.0202,0.0214,0.0237,0.0303,0.0192,0.0193,0.0193,0,-0.0593,-0.056,-0.0517,-0.0484,-0.0466,-0.0438,-0.0397,-0.0354,-0.0285,-0.0248,-0.0192,-0.0136,-0.0066,-0.0045,0.0063,0.0038,0.0096,0.0147,0.0151,0.0203,0.0224,0.0292,0.0317,0.0412,0.0202,0.0201,0.0201,0,-0.062,-0.0559,-0.0538,-0.0518,-0.0461,-0.0449,-0.0425,-0.0365,-0.0339,-0.027,-0.0247,-0.016,-0.0113,-0.0038,0.0071,0.0064,0.0183,0.0189,0.0271,0.0274,0.0326,0.0332,0.0446,0.0256,0.0255,0.0255,0.0255,0,-0.0616,-0.0599,-0.0555,-0.0538,-0.0527,-0.048,-0.0466,-0.0428,-0.0379,-0.0351,-0.0272,-0.023,-0.0112,-0.0025,0.0061,0.0187,0.0176,0.0273,0.0297,0.0308,0.0311,0.0424,0.0453,0.0258,0.0257,0.0257,0.0256,0,-0.0643,-0.0614,-0.0589,-0.0544,-0.0538,-0.0531,-0.0503,-0.0492,-0.0441,-0.0405,-0.0386,-0.0277,-0.0159,-0.0035,0.0105,0.0181,0.0354,0.0339,0.0345,0.0368,0.0524,0.0548,0.0675,0.0726,0.0436,0.0438,0.0439,0,-0.0647,-0.0634,-0.0605,-0.0607,-0.059,-0.058,-0.0577,-0.053,-0.0515,-0.043,-0.0415,-0.0291,-0.0191,0.0029,0.0188,0.0351,0.0416,0.0462,0.0457,0.0545,0.0589,0.0599,0.0633,0.0504,0.0506,0.0507,0.0508,0,-0.065,-0.0646,-0.0632,-0.0639,-0.0642,-0.0642,-0.0631,-0.0629,-0.0572,-0.0524,-0.0437,-0.0348,-0.0125,0.0084,0.0299,0.0395,0.0528,0.0491,0.0587,0.0659,0.0674,0.073,0.0443,0.0519,0.0518,0.0517,0.0516,0.0516,-0.0658,-0.0662,-0.0655,-0.0665,-0.0679,-0.0694,-0.0691,-0.0669,-0.0634,-0.054,-0.0456,-0.0279,0.0005,0.032,0.0426,0.0664,0.0629,0.0735,0.0759,0.0763,0.0811,0.0545,0.0644,0.0643,0.0643,0.0643,0.0643,0,-0.0654,-0.0666,-0.0681,-0.0695,-0.0721,-0.0716,-0.0716,-0.0691,-0.0644,-0.0524,-0.0407,-0.0049,0.023,0.0487,0.0804,0.0928,0.0944,0.0988,0.1014,0.1037,0.0817,0.0819,0.0955,0.0954,0.0954,0.0954,0.0954,0.0954,-0.0651,-0.0666,-0.0677,-0.072,-0.0738,-0.0748,-0.0744,-0.0688,-0.0594,-0.0372,-0.0148,0.0032,0.0397,0.0869,0.1154,0.1177,0.1273,0.1259,0.1311,0.1164,0.1142,0.1121,0.1133,0.1332,0.1332,0.1526,0.1528,0.153]}],[{"header":{"parameterUnit":"m.s-1","parameterCategory":2,"la1":30.2991,"la2":30.254,"lo1":-89.0895,"lo2":-89.0444,"dy":0.0017,"dx":0.0017,"nx":28,"ny":28,"refTime":"2024-12-24T03:00:00:Z","depth":"2","parameterNumber":2,"parameterNumberName":"U-component_of_CURRENTS"},"data":[0,0,0,0,0,0,0,0,0,0,0,0,0,0,0,0,0,0,0,0,0,0,0,0,0,0,0,0,0,0,0,0,0,0,0,0,0,0,0,0,0,0,0,0,0,0,0,0,0,0,0,0,0,0,0,0,0,0,-0.2304,-0.2302,0,-0.2171,-0.2169,-0.2168,-0.2118,-0.2119,-0.2119,-0.212,-0.1957,-0.1953,-0.1948,0,0,0,0,0,0,0,0,0,0,0,0,0,-0.2197,-0.2201,-0.2304,-0.2302,-0.2301,-0.2171,-0.2169,-0.2167,-0.2118,-0.2119,-0.2119,-0.212,-0.1959,-0.1953,-0.1948,0,0,0,0,0,0,0,0,0,0,0,0,0,-0.2171,-0.2202,-0.2304,-0.2262,-0.2257,-0.2172,-0.2169,-0.2167,-0.2118,-0.2119,-0.2119,-0.212,-0.1961,-0.1954,-0.1947,-0.1885,0,0,-0.1925,-0.1921,0,0,0,0,0,0,0,0,-0.2173,-0.2175,-0.2269,-0.2264,-0.2259,-0.2163,-0.2072,-0.2072,-0.2118,-0.2169,-0.212,-0.2121,-0.2024,-0.2012,-0.1983,-0.1878,-0.1871,-0.1924,-0.192,-0.1916,-0.1914,0,0,0,0,0,0,0,-0.2175,-0.2178,-0.225,-0.2268,-0.2261,-0.214,-0.214,-0.207,-0.2092,-0.2164,-0.2161,-0.2148,-0.2021,-0.199,-0.1979,-0.1869,-0.1924,-0.1918,-0.1913,-0.191,-0.176,-0.176,0,0,0,0,0,0,-0.2211,-0.2183,-0.2254,-0.2246,-0.2218,-0.2143,-0.2143,-0.2192,-0.2093,-0.2079,-0.2148,-0.2146,-0.2002,-0.1987,-0.1973,-0.1925,-0.1916,-0.191,-0.1906,-0.1759,-0.176,-0.176,0,0,0,0,0,0,-0.2211,-0.2222,-0.2259,-0.2207,-0.2204,-0.2147,-0.22,-0.2189,-0.2148,-0.2081,-0.2067,-0.2119,-0.2002,-0.1983,-0.1921,-0.1918,-0.1906,-0.19,-0.1759,-0.176,-0.176,-0.181,0,0,0,0,0,0,-0.2209,-0.2224,-0.2268,-0.2213,-0.2209,-0.2194,-0.2199,-0.2186,-0.2141,-0.2138,-0.2051,-0.2037,-0.2001,-0.1933,-0.1914,-0.1908,-0.1894,-0.1759,-0.1759,-0.176,-0.1808,-0.1813,-0.1816,0,0,0,0,0,-0.2207,-0.2222,-0.2273,-0.228,-0.2277,-0.2192,-0.2177,-0.2134,-0.2139,-0.2105,-0.2074,-0.204,-0.1925,-0.1926,-0.1905,-0.1896,-0.1758,-0.1759,-0.176,-0.1807,-0.1812,-0.1816,0,0,0,0,0,0,-0.2215,-0.2218,-0.2271,-0.2302,-0.2262,-0.2184,-0.2127,-0.2127,-0.2073,-0.2073,-0.2026,-0.2009,-0.196,-0.1919,-0.1923,-0.1859,-0.1841,-0.1838,-0.1884,-0.1888,-0.1892,-0.1894,-0.1888,0,0,0,0,0,-0.2246,-0.2239,-0.2247,-0.226,-0.2237,-0.2194,-0.2157,-0.2145,-0.209,-0.2066,-0.2027,-0.1986,-0.1944,-0.1911,-0.1864,-0.181,-0.1775,-0.1797,-0.1801,-0.1805,-0.1794,-0.1744,-0.1742,-0.1763,-0.1763,-0.1763,0,0,-0.225,-0.2247,-0.2251,-0.2256,-0.2208,-0.218,-0.2169,-0.2101,-0.2093,-0.2055,-0.2014,-0.1988,-0.1934,-0.1893,-0.1867,-0.1856,-0.1786,-0.1806,-0.1809,-0.1796,-0.1744,-0.1742,-0.174,-0.1763,-0.1763,-0.1763,0,0,-0.2195,-0.2252,-0.2218,-0.2199,-0.2154,-0.2133,-0.2121,-0.2074,-0.206,-0.203,-0.2019,-0.1996,-0.1917,-0.1897,-0.1871,-0.1862,-0.1811,-0.185,-0.1861,-0.1813,-0.1811,-0.1808,-0.1785,-0.1779,-0.185,-0.185,-0.185,0,-0.2199,-0.2203,-0.2186,-0.2156,-0.2131,-0.2119,-0.2087,-0.207,-0.2026,-0.2011,-0.2022,-0.195,-0.1921,-0.1872,-0.1894,-0.1868,-0.1838,-0.1848,-0.1817,-0.1814,-0.181,-0.1787,-0.178,-0.1853,-0.1852,-0.1852,-0.1852,0,-0.2125,-0.2146,-0.2094,-0.2085,-0.2062,-0.2004,-0.2013,-0.1999,-0.2,-0.1999,-0.1961,-0.194,-0.1897,-0.1901,-0.1896,-0.1862,-0.1849,-0.1831,-0.1805,-0.1811,-0.1786,-0.1779,-0.1856,-0.1855,-0.1855,-0.1854,0,0,-0.206,-0.205,-0.2038,-0.2035,-0.2023,-0.1979,-0.1977,-0.1949,-0.1937,-0.1937,-0.1907,-0.1893,-0.1897,-0.1871,-0.1868,-0.1849,-0.1831,-0.1839,-0.1835,-0.1816,-0.1735,-0.1706,-0.1695,-0.18,-0.1799,-0.1798,-0.1737,0,-0.1992,-0.1941,-0.1961,-0.1916,-0.188,-0.1906,-0.19,-0.19,-0.1898,-0.1877,-0.1875,-0.1846,-0.1879,-0.1868,-0.1856,-0.1833,-0.1808,-0.185,-0.1731,-0.1728,-0.1701,-0.1684,-0.1568,-0.1501,-0.1729,-0.1728,-0.1727,0,-0.19,-0.1877,-0.1836,-0.1834,-0.1821,-0.1818,-0.1794,-0.1797,-0.1798,-0.1801,-0.1793,-0.1793,-0.1786,-0.1807,-0.1764,-0.1786,-0.1763,-0.175,-0.1746,-0.1689,-0.1683,-0.1526,-0.1478,-0.1713,-0.1714,-0.1715,-0.1716,0,-0.1799,-0.178,-0.174,-0.174,-0.1751,-0.1743,-0.1748,-0.1762,-0.1762,-0.1754,-0.1754,-0.1733,-0.173,-0.1696,-0.1711,-0.1722,-0.1655,-0.1655,-0.1601,-0.16,-0.1461,-0.145,-0.1593,-0.1593,-0.1593,-0.1593,-0.1594,0,-0.1692,-0.1658,-0.1694,-0.1669,-0.1635,-0.1674,-0.1649,-0.1664,-0.1684,-0.1676,-0.1709,-0.1698,-0.1702,-0.1682,-0.1675,-0.1623,-0.1619,-0.1591,-0.157,-0.148,-0.1471,-0.1619,-0.1623,-0.1591,-0.1592,-0.1592,-0.1593,0,-0.158,-0.1601,-0.1562,-0.1579,-0.1587,-0.1566,-0.1608,-0.1596,-0.1632,-0.1626,-0.1626,-0.1659,-0.1637,-0.1638,-0.1591,-0.1576,-0.1528,-0.1503,-0.1419,-0.1389,-0.1514,-0.1521,-0.142,-0.1418,-0.1417,-0.1416,-0.1415,0,-0.1513,-0.1481,-0.1499,-0.1493,-0.1501,-0.1498,-0.1505,-0.1555,-0.1561,-0.16,-0.1587,-0.1586,-0.1565,-0.1508,-0.147,-0.1416,-0.1472,-0.1284,-0.1281,-0.15,-0.149,-0.15,-0.1509,-0.1128,-0.1124,-0.1122,-0.1119,0,-0.1387,-0.1408,-0.1394,-0.1392,-0.1395,-0.14,-0.1418,-0.1421,-0.1479,-0.1485,-0.1486,-0.1471,-0.144,-0.1337,-0.1292,-0.125,-0.1287,-0.1227,-0.1432,-0.1203,-0.1222,-0.1214,-0.1233,-0.1095,-0.1098,-0.1099,-0.1101,-0.1102,-0.1305,-0.1281,-0.1284,-0.1274,-0.1287,-0.1287,-0.1262,-0.1298,-0.1295,-0.1288,-0.1343,-0.1286,-0.1278,-0.1142,-0.1084,-0.1043,-0.1133,-0.1078,-0.1087,-0.1098,-0.1088,-0.1105,-0.0955,-0.0957,-0.0958,-0.0959,-0.096,0,-0.1186,-0.118,-0.1167,-0.1157,-0.1137,-0.1181,-0.1188,-0.1153,-0.1121,-0.1139,-0.1121,-0.0999,-0.0931,-0.0931,-0.083,-0.0814,-0.0808,-0.078,-0.0768,-0.0792,-0.0814,-0.079,-0.0577,-0.0576,-0.0575,-0.0574,0,0,-0.1121,-0.1071,-0.1072,-0.1006,-0.1006,-0.0949,-0.0934,-0.0906,-0.0897,-0.084,-0.0811,-0.0871,-0.0895,-0.0735,-0.0699,-0.0621,-0.07,-0.0588,-0.0893,-0.0902,-0.0922,-0.0981,-0.0971,0,0,0,0,0]},{"header":{"parameterUnit":"m.s-1","parameterCategory":2,"la1":30.2991,"la2":30.254,"lo1":-89.0895,"lo2":-89.0444,"dy":0.0017,"dx":0.0017,"nx":28,"ny":28,"refTime":"2024-12-24T03:00:00:Z","depth":"2","parameterNumber":3,"parameterNumberName":"V-component_of_CURRENTS"},"data":[0,0,0,0,0,0,0,0,0,0,0,0,0,0,0,0,0,0,0,0,0,0,0,0,0,0,0,0,0,0,0,0,0,0,0,0,0,0,0,0,0,0,0,0,0,0,0,0,0,0,0,0,0,0,0,0,0,0,-0.0544,-0.0543,0,-0.0388,-0.0386,-0.0384,-0.0325,-0.0326,-0.0327,-0.0328,-0.0177,-0.0172,-0.0168,0,0,0,0,0,0,0,0,0,0,0,0,0,-0.0617,-0.0616,-0.0544,-0.0542,-0.0541,-0.0388,-0.0386,-0.0383,-0.0325,-0.0326,-0.0327,-0.0328,-0.0178,-0.0173,-0.0167,0,0,0,0,0,0,0,0,0,0,0,0,0,-0.0533,-0.0616,-0.0544,-0.0495,-0.0489,-0.0389,-0.0386,-0.0383,-0.0325,-0.0326,-0.0327,-0.0328,-0.018,-0.0173,-0.0166,-0.0101,0,0,-0.0145,-0.0142,0,0,0,0,0,0,0,0,-0.0538,-0.053,-0.0504,-0.0498,-0.0492,-0.038,-0.0356,-0.029,-0.0325,-0.0385,-0.0328,-0.0329,-0.0246,-0.0234,-0.0198,-0.0094,-0.0088,-0.0144,-0.014,-0.0137,-0.0135,0,0,0,0,0,0,0,-0.0544,-0.0536,-0.048,-0.0502,-0.0495,-0.0421,-0.0412,-0.0342,-0.0309,-0.038,-0.0376,-0.0362,-0.0243,-0.0205,-0.0194,-0.0086,-0.0145,-0.0138,-0.0134,-0.0131,0.0042,0.0042,0,0,0,0,0,0,-0.0577,-0.0542,-0.0485,-0.0475,-0.0521,-0.042,-0.0409,-0.0412,-0.031,-0.0296,-0.0361,-0.036,-0.0216,-0.0202,-0.0189,-0.013,-0.0137,-0.0131,-0.0127,0.0041,0.0042,0.0042,0,0,0,0,0,0,-0.0579,-0.0574,-0.0491,-0.0506,-0.0491,-0.0419,-0.0422,-0.0409,-0.0372,-0.0296,-0.0282,-0.034,-0.0217,-0.0199,-0.013,-0.0123,-0.0127,-0.0121,0.0041,0.0041,0.0042,0.0003,0,0,0,0,0,0,-0.0582,-0.0576,-0.0581,-0.0509,-0.0491,-0.0432,-0.0421,-0.0405,-0.0364,-0.036,-0.0273,-0.026,-0.0216,-0.0141,-0.0123,-0.0114,-0.0116,0.004,0.0041,0.0042,0.0003,0.0002,0.0,0,0,0,0,0,-0.0586,-0.0574,-0.0583,-0.0575,-0.0504,-0.0431,-0.0414,-0.0364,-0.0362,-0.0337,-0.0287,-0.0263,-0.0125,-0.0134,-0.0114,-0.0102,0.004,0.0041,0.0042,0.0004,0.0002,0.0,0,0,0,0,0,0,-0.0597,-0.0566,-0.0573,-0.0554,-0.0505,-0.0422,-0.0386,-0.0364,-0.0301,-0.0301,-0.0242,-0.0223,-0.0167,-0.0125,-0.0138,-0.0053,-0.0044,-0.0039,-0.008,-0.0081,-0.0082,-0.0098,-0.011,0,0,0,0,0,-0.061,-0.06,-0.0558,-0.0539,-0.0519,-0.0459,-0.0422,-0.0395,-0.0334,-0.0307,-0.0251,-0.0195,-0.0143,-0.0108,-0.0052,0.001,0.0035,0.0025,0.0023,0.0022,0.0022,0.006,0.0061,0.0045,0.0045,0.0045,0,0,-0.061,-0.0589,-0.0584,-0.0541,-0.0498,-0.0464,-0.0437,-0.0383,-0.0357,-0.0299,-0.0239,-0.0193,-0.0129,-0.0071,-0.0042,-0.0036,0.004,0.0023,0.0021,0.0023,0.0061,0.0062,0.0064,0.0045,0.0045,0.0045,0,0,-0.0591,-0.0587,-0.0574,-0.054,-0.0489,-0.0454,-0.0446,-0.0375,-0.0347,-0.0287,-0.0251,-0.0202,-0.0109,-0.0065,-0.0033,-0.0006,0.0027,0.0006,-0.0004,0.0032,0.0034,0.0035,0.0065,0.007,0.0009,0.0009,0.0009,0,-0.0593,-0.0582,-0.0552,-0.0526,-0.0499,-0.0459,-0.0435,-0.0392,-0.0311,-0.0286,-0.0278,-0.016,-0.0108,-0.0044,-0.0041,-0.0009,0.0013,-0.0003,0.0029,0.0031,0.0033,0.0064,0.0069,0.0007,0.0008,0.0008,0.0008,0,-0.0568,-0.0559,-0.0536,-0.0512,-0.0477,-0.044,-0.04,-0.0366,-0.0339,-0.03,-0.0236,-0.0166,-0.0101,-0.008,-0.0047,-0.0004,0.0006,0.0017,0.0029,0.0032,0.0065,0.0071,0.0005,0.0006,0.0006,0.0007,0,0,-0.0578,-0.0534,-0.053,-0.0523,-0.0472,-0.0439,-0.0405,-0.0357,-0.0339,-0.0275,-0.0239,-0.0156,-0.0129,-0.0092,-0.0048,-0.0012,0.0022,0.0006,0.0009,0.0028,0.0097,0.0115,0.0124,0.0036,0.0037,0.0037,0.0111,0,-0.0571,-0.0537,-0.0515,-0.0486,-0.0466,-0.0431,-0.0403,-0.036,-0.0319,-0.0273,-0.0214,-0.016,-0.0131,-0.0104,-0.0065,0.0002,0.0038,0.0001,0.0098,0.0101,0.0111,0.0132,0.0116,0.0182,0.0117,0.0118,0.0119,0,-0.0565,-0.0542,-0.0518,-0.0487,-0.0476,-0.0458,-0.0418,-0.0387,-0.0324,-0.0292,-0.0238,-0.0189,-0.0121,-0.0106,0.0002,-0.0025,0.0031,0.0078,0.0083,0.0119,0.0132,0.0171,0.0196,0.013,0.0129,0.0129,0.0128,0,-0.059,-0.055,-0.0535,-0.052,-0.0476,-0.0466,-0.0446,-0.0393,-0.0371,-0.0306,-0.0283,-0.0199,-0.0154,-0.0079,0.0018,0.0011,0.0131,0.0134,0.0204,0.0206,0.0223,0.0224,0.0206,0.0206,0.0206,0.0206,0.0206,0,-0.0595,-0.0583,-0.0549,-0.0538,-0.053,-0.0492,-0.0478,-0.0446,-0.04,-0.0372,-0.03,-0.0258,-0.0147,-0.0063,0.0015,0.0132,0.013,0.021,0.0231,0.0209,0.0208,0.0187,0.0184,0.0209,0.0208,0.0207,0.0207,0,-0.062,-0.0597,-0.0581,-0.0546,-0.0541,-0.0537,-0.0513,-0.0501,-0.0454,-0.0418,-0.0399,-0.0296,-0.0184,-0.007,0.0066,0.0133,0.0239,0.028,0.0245,0.026,0.0288,0.0282,0.0364,0.0365,0.0367,0.0368,0.0368,0,-0.0625,-0.0618,-0.0597,-0.0601,-0.0589,-0.0581,-0.0578,-0.0536,-0.052,-0.0437,-0.042,-0.0303,-0.021,-0.0005,0.0134,0.0283,0.0279,0.0351,0.0338,0.0295,0.0307,0.0299,0.0292,0.0345,0.0345,0.0346,0.0346,0,-0.0633,-0.0632,-0.0623,-0.0632,-0.0636,-0.0636,-0.0626,-0.0622,-0.0567,-0.0519,-0.0433,-0.035,-0.015,0.0022,0.0212,0.0293,0.0324,0.0365,0.0343,0.0303,0.0281,0.0291,0.0284,0.035,0.0349,0.0349,0.0349,0.0349,-0.0643,-0.065,-0.0648,-0.0658,-0.0671,-0.0681,-0.0679,-0.0653,-0.0617,-0.0527,-0.0448,-0.0293,-0.014,0.0146,0.0266,0.0382,0.038,0.041,0.0406,0.0403,0.0383,0.0365,0.0445,0.0445,0.0445,0.0446,0.0446,0,-0.0646,-0.0658,-0.0673,-0.0686,-0.0708,-0.0704,-0.0699,-0.0675,-0.0625,-0.0517,-0.0408,-0.021,-0.0013,0.0145,0.0333,0.0437,0.042,0.0449,0.0406,0.0402,0.0398,0.0376,0.0438,0.0438,0.0438,0.0438,0,0,-0.0648,-0.0664,-0.0673,-0.0709,-0.0725,-0.0734,-0.0728,-0.0674,-0.059,-0.0472,-0.0341,-0.0179,0.0013,0.0143,0.0265,0.0359,0.0351,0.0365,0.0362,0.0292,0.0287,0.0369,0.033,0,0,0,0,0]}],[{"header":{"parameterUnit":"m.s-1","parameterCategory":2,"la1":30.2991,"la2":30.254,"lo1":-89.0895,"lo2":-89.0444,"dy":0.0017,"dx":0.0017,"nx":28,"ny":28,"refTime":"2024-12-24T03:00:00:Z","depth":"4","parameterNumber":2,"parameterNumberName":"U-component_of_CURRENTS"},"data":[0,0,0,0,0,0,0,0,0,0,0,0,0,0,0,0,0,0,0,0,0,0,0,0,0,0,0,0,0,0,0,0,0,0,0,0,0,0,0,0,0,0,0,0,0,0,0,0,0,0,0,0,0,0,0,0,0,0,-0.0698,-0.0699,0,-0.0685,-0.0684,-0.0683,-0.0663,-0.0664,-0.0664,-0.0664,-0.0792,-0.0795,-0.0798,0,0,0,0,0,0,0,0,0,0,0,0,0,-0.059,-0.0592,-0.0698,-0.0699,-0.0699,-0.0685,-0.0684,-0.0683,-0.0663,-0.0664,-0.0664,-0.0664,-0.0791,-0.0795,-0.0798,0,0,0,0,0,0,0,0,0,0,0,0,0,-0.0607,-0.0593,-0.0698,-0.0693,-0.0693,-0.0685,-0.0684,-0.0683,-0.0663,-0.0664,-0.0664,-0.0665,-0.079,-0.0794,-0.0799,-0.0818,0,0,-0.0813,-0.0815,0,0,0,0,0,0,0,0,-0.0606,-0.061,-0.0693,-0.0693,-0.0693,-0.0683,-0.0693,-0.0738,-0.0663,-0.0667,-0.0664,-0.0665,-0.0773,-0.0779,-0.0763,-0.0824,-0.083,-0.0813,-0.0816,-0.0818,-0.082,0,0,0,0,0,0,0,-0.0605,-0.061,-0.0685,-0.0694,-0.0694,-0.0652,-0.0655,-0.07,-0.0714,-0.0667,-0.0667,-0.0677,-0.0773,-0.0758,-0.0766,-0.0832,-0.0813,-0.0817,-0.082,-0.0822,-0.1025,-0.1028,0,0,0,0,0,0,-0.0627,-0.0609,-0.0686,-0.0686,-0.0658,-0.0654,-0.0657,-0.068,-0.0711,-0.0717,-0.0676,-0.0676,-0.075,-0.0761,-0.0771,-0.0891,-0.0818,-0.0823,-0.0825,-0.1023,-0.1026,-0.1029,0,0,0,0,0,0,-0.0625,-0.0634,-0.0687,-0.0652,-0.0656,-0.0657,-0.0681,-0.0679,-0.0695,-0.0718,-0.0725,-0.0699,-0.0751,-0.0765,-0.0846,-0.0892,-0.0825,-0.0829,-0.102,-0.1024,-0.1027,-0.1071,0,0,0,0,0,0,-0.0622,-0.0634,-0.0658,-0.0654,-0.066,-0.0724,-0.0682,-0.0679,-0.0702,-0.0702,-0.074,-0.0749,-0.0752,-0.0839,-0.0851,-0.0898,-0.0833,-0.1016,-0.1021,-0.1026,-0.1066,-0.1076,-0.1084,0,0,0,0,0,-0.0618,-0.0664,-0.0659,-0.0669,-0.0693,-0.0727,-0.0726,-0.0721,-0.0703,-0.0731,-0.0751,-0.075,-0.0878,-0.0845,-0.0858,-0.0907,-0.1014,-0.102,-0.1026,-0.1062,-0.1074,-0.1084,0,0,0,0,0,0,-0.0627,-0.0666,-0.0662,-0.0715,-0.0736,-0.0727,-0.0762,-0.0741,-0.077,-0.0781,-0.0783,-0.0796,-0.0877,-0.0897,-0.0859,-0.0982,-0.0947,-0.0956,-0.097,-0.0982,-0.099,-0.0972,-0.0836,0,0,0,0,0,-0.0641,-0.0694,-0.0708,-0.0757,-0.0779,-0.077,-0.0782,-0.0777,-0.0799,-0.081,-0.0842,-0.0877,-0.0905,-0.0948,-0.0981,-0.106,-0.104,-0.1103,-0.1112,-0.1119,-0.1115,-0.1119,-0.1126,-0.1048,-0.1048,-0.1048,0,0,-0.0672,-0.0689,-0.0727,-0.0764,-0.0783,-0.0814,-0.078,-0.0825,-0.0842,-0.0827,-0.0896,-0.0912,-0.0931,-0.1003,-0.1044,-0.1033,-0.1134,-0.1126,-0.1132,-0.1124,-0.1126,-0.1133,-0.1139,-0.1052,-0.1051,-0.105,0,0,-0.0739,-0.077,-0.083,-0.0847,-0.0882,-0.0876,-0.0898,-0.0919,-0.0932,-0.0989,-0.097,-0.1012,-0.1091,-0.1093,-0.1102,-0.1188,-0.1171,-0.1223,-0.1267,-0.1271,-0.1277,-0.1281,-0.1266,-0.1269,-0.1239,-0.124,-0.124,0,-0.0791,-0.0824,-0.0852,-0.0891,-0.0912,-0.0911,-0.0955,-0.0965,-0.1005,-0.1025,-0.1035,-0.11,-0.112,-0.1157,-0.1184,-0.1205,-0.1203,-0.1217,-0.1279,-0.1283,-0.1286,-0.127,-0.1272,-0.1242,-0.1242,-0.1242,-0.1242,0,-0.086,-0.0898,-0.0943,-0.0988,-0.1016,-0.1063,-0.1077,-0.1119,-0.1135,-0.1131,-0.1195,-0.1208,-0.124,-0.1261,-0.1249,-0.1295,-0.1283,-0.1274,-0.1239,-0.1296,-0.1276,-0.1278,-0.1246,-0.1245,-0.1245,-0.1244,0,0,-0.0953,-0.0996,-0.1006,-0.1021,-0.1065,-0.1091,-0.1152,-0.1188,-0.1208,-0.126,-0.1287,-0.1331,-0.1326,-0.1336,-0.1331,-0.1343,-0.1361,-0.1334,-0.1333,-0.1298,-0.1369,-0.1278,-0.127,-0.1371,-0.1372,-0.1373,-0.1342,0,-0.1006,-0.1074,-0.108,-0.114,-0.1173,-0.1193,-0.1235,-0.1265,-0.1293,-0.1326,-0.1334,-0.1357,-0.1356,-0.1367,-0.1384,-0.1358,-0.137,-0.137,-0.1338,-0.1336,-0.123,-0.127,-0.1375,-0.1343,-0.1344,-0.1344,-0.1344,0,-0.1037,-0.1075,-0.1148,-0.1183,-0.1206,-0.1239,-0.1293,-0.1327,-0.1363,-0.1386,-0.1417,-0.1412,-0.1429,-0.1416,-0.1416,-0.1424,-0.1406,-0.1387,-0.1386,-0.1282,-0.1248,-0.1279,-0.1346,-0.1346,-0.1346,-0.1345,-0.1345,0,-0.1025,-0.1102,-0.1155,-0.1172,-0.1232,-0.1271,-0.1302,-0.1348,-0.1368,-0.1411,-0.1424,-0.145,-0.1449,-0.145,-0.142,-0.1427,-0.1404,-0.1401,-0.1302,-0.1294,-0.1362,-0.1357,-0.1401,-0.1401,-0.1401,-0.1401,-0.1401,0,-0.1032,-0.1072,-0.1152,-0.1175,-0.122,-0.1269,-0.1312,-0.1349,-0.139,-0.1397,-0.1441,-0.1439,-0.1461,-0.1449,-0.1431,-0.1363,-0.1414,-0.1304,-0.1282,-0.1384,-0.1382,-0.1362,-0.1358,-0.14,-0.14,-0.14,-0.1401,0,-0.0993,-0.1056,-0.1102,-0.1184,-0.1208,-0.1235,-0.1294,-0.1314,-0.1369,-0.1381,-0.1391,-0.1429,-0.1412,-0.1414,-0.1393,-0.1351,-0.1305,-0.127,-0.1367,-0.1352,-0.1191,-0.119,-0.1154,-0.1151,-0.1148,-0.1145,-0.1143,0,-0.098,-0.1004,-0.1087,-0.1105,-0.1144,-0.1193,-0.1216,-0.1287,-0.13,-0.1355,-0.1345,-0.1358,-0.1368,-0.1262,-0.1286,-0.1238,-0.1225,-0.1196,-0.1206,-0.1183,-0.1167,-0.117,-0.1173,-0.1139,-0.1138,-0.1137,-0.1137,0,-0.0935,-0.0971,-0.1004,-0.1042,-0.1076,-0.1107,-0.115,-0.1151,-0.122,-0.1283,-0.1255,-0.1236,-0.1212,-0.1193,-0.1162,-0.1133,-0.1214,-0.1166,-0.1172,-0.1181,-0.1164,-0.1151,-0.1158,-0.1127,-0.1128,-0.1129,-0.113,0,-0.0888,-0.0888,-0.0928,-0.095,-0.0993,-0.1002,-0.1041,-0.1054,-0.1077,-0.1149,-0.1134,-0.1153,-0.1194,-0.1136,-0.1109,-0.1072,-0.1058,-0.1024,-0.1038,-0.1049,-0.1029,-0.0993,-0.0881,0,0,0,0,0,-0.0827,-0.0813,-0.083,-0.085,-0.0893,-0.0917,-0.0983,-0.1027,-0.1099,-0.1046,-0.1087,-0.106,-0.1021,-0.1035,-0.0972,-0.1062,-0.1063,-0.0985,-0.1034,-0.1071,-0.1083,-0.1069,0,0,0,0,0,0,-0.0782,-0.0789,-0.0793,-0.0762,-0.076,-0.0795,-0.0834,-0.0892,-0.0873,-0.095,-0.0931,-0.0989,-0.0964,-0.1029,-0.0944,-0.0948,-0.0956,-0.1005,-0.1002,-0.1064,-0.1075,-0.1084,-0.1074,0,0,0,0,0]},{"header":{"parameterUnit":"m.s-1","parameterCategory":2,"la1":30.2991,"la2":30.254,"lo1":-89.0895,"lo2":-89.0444,"dy":0.0017,"dx":0.0017,"nx":28,"ny":28,"refTime":"2024-12-24T03:00:00:Z","depth":"4","parameterNumber":3,"parameterNumberName":"V-component_of_CURRENTS"},"data":[0,0,0,0,0,0,0,0,0,0,0,0,0,0,0,0,0,0,0,0,0,0,0,0,0,0,0,0,0,0,0,0,0,0,0,0,0,0,0,0,0,0,0,0,0,0,0,0,0,0,0,0,0,0,0,0,0,0,-0.0232,-0.0232,0,-0.0249,-0.025,-0.025,-0.026,-0.026,-0.026,-0.026,-0.0237,-0.0237,-0.0236,0,0,0,0,0,0,0,0,0,0,0,0,0,-0.0203,-0.0204,-0.0232,-0.0232,-0.0232,-0.0249,-0.025,-0.025,-0.026,-0.026,-0.026,-0.026,-0.0238,-0.0237,-0.0236,0,0,0,0,0,0,0,0,0,0,0,0,0,-0.0219,-0.0204,-0.0231,-0.0239,-0.0239,-0.0249,-0.025,-0.025,-0.026,-0.026,-0.026,-0.026,-0.0238,-0.0237,-0.0236,-0.0231,0,0,-0.0233,-0.0233,0,0,0,0,0,0,0,0,-0.0218,-0.022,-0.0237,-0.0238,-0.0239,-0.0252,-0.0231,-0.0241,-0.026,-0.0253,-0.026,-0.026,-0.0238,-0.0237,-0.0242,-0.023,-0.0229,-0.0233,-0.0233,-0.0232,-0.0232,0,0,0,0,0,0,0,-0.0217,-0.0219,-0.0239,-0.0238,-0.0239,-0.024,-0.0242,-0.0234,-0.0245,-0.0254,-0.0254,-0.0255,-0.0238,-0.0243,-0.0241,-0.0229,-0.0233,-0.0232,-0.0232,-0.0232,-0.0184,-0.0184,0,0,0,0,0,0,-0.0213,-0.0218,-0.0239,-0.024,-0.0227,-0.024,-0.0243,-0.0248,-0.0246,-0.0246,-0.0255,-0.0256,-0.0244,-0.0242,-0.0241,-0.022,-0.0232,-0.0231,-0.0231,-0.0185,-0.0184,-0.0183,0,0,0,0,0,0,-0.0213,-0.0215,-0.0238,-0.0228,-0.0231,-0.0241,-0.0247,-0.0249,-0.0257,-0.0248,-0.0247,-0.0261,-0.0244,-0.0242,-0.0232,-0.022,-0.0231,-0.023,-0.0186,-0.0185,-0.0184,-0.0188,0,0,0,0,0,0,-0.0212,-0.0215,-0.022,-0.0228,-0.0232,-0.0245,-0.0247,-0.0249,-0.0257,-0.0258,-0.0253,-0.025,-0.0244,-0.0233,-0.0231,-0.0219,-0.023,-0.0187,-0.0185,-0.0184,-0.0189,-0.0188,-0.0186,0,0,0,0,0,-0.0211,-0.0224,-0.022,-0.0223,-0.0238,-0.0245,-0.0247,-0.0254,-0.0257,-0.0261,-0.0255,-0.0251,-0.0222,-0.0232,-0.023,-0.0217,-0.0187,-0.0186,-0.0184,-0.019,-0.0188,-0.0186,0,0,0,0,0,0,-0.0214,-0.0226,-0.0223,-0.0238,-0.0238,-0.0247,-0.0259,-0.0256,-0.0257,-0.0259,-0.0248,-0.0246,-0.0232,-0.0222,-0.0233,-0.0197,-0.0201,-0.0199,-0.0206,-0.0205,-0.0203,-0.0208,-0.0229,0,0,0,0,0,-0.0216,-0.0232,-0.0232,-0.0244,-0.0249,-0.0252,-0.0257,-0.0257,-0.0258,-0.0259,-0.025,-0.0237,-0.0223,-0.0213,-0.0203,-0.0186,-0.0167,-0.0173,-0.0172,-0.0171,-0.0171,-0.0128,-0.0122,-0.0178,-0.0178,-0.0178,0,0,-0.0221,-0.023,-0.0238,-0.0246,-0.0254,-0.0257,-0.0256,-0.0267,-0.0262,-0.0255,-0.0249,-0.0237,-0.0218,-0.0201,-0.0192,-0.0191,-0.0144,-0.0168,-0.0168,-0.0169,-0.0125,-0.012,-0.0115,-0.0177,-0.0177,-0.0177,0,0,-0.0241,-0.0248,-0.0265,-0.0265,-0.0272,-0.027,-0.0272,-0.0273,-0.0269,-0.026,-0.0248,-0.0227,-0.0212,-0.0189,-0.0178,-0.016,-0.0142,-0.0153,-0.0146,-0.0104,-0.0099,-0.0095,-0.0065,-0.0058,-0.0148,-0.0148,-0.0148,0,-0.0248,-0.0263,-0.0269,-0.0279,-0.028,-0.0275,-0.028,-0.0275,-0.0267,-0.0257,-0.0259,-0.0217,-0.0205,-0.0169,-0.0164,-0.0157,-0.0135,-0.0157,-0.0103,-0.0098,-0.0093,-0.0064,-0.0056,-0.0148,-0.0148,-0.0148,-0.0148,0,-0.0272,-0.028,-0.0293,-0.0301,-0.03,-0.0308,-0.0294,-0.0287,-0.028,-0.0265,-0.0235,-0.0211,-0.0184,-0.0171,-0.0166,-0.012,-0.0116,-0.0111,-0.011,-0.0088,-0.0058,-0.005,-0.0148,-0.0148,-0.0148,-0.0148,0,0,-0.0302,-0.031,-0.0314,-0.0315,-0.0311,-0.0314,-0.0303,-0.0288,-0.0279,-0.0254,-0.0231,-0.0197,-0.0179,-0.0163,-0.014,-0.0102,-0.0053,-0.0094,-0.0092,-0.0069,0.0036,0.0022,0.003,-0.0037,-0.0035,-0.0034,0.0043,0,-0.032,-0.0341,-0.0334,-0.0342,-0.035,-0.0332,-0.0322,-0.0302,-0.0282,-0.0257,-0.0214,-0.0189,-0.0176,-0.0161,-0.0118,-0.0074,-0.003,-0.0074,0.0016,0.0018,-0.0001,0.0039,-0.0029,0.0049,0.0051,0.0053,0.0054,0,-0.0345,-0.0354,-0.0368,-0.0361,-0.0363,-0.0362,-0.0344,-0.0332,-0.0289,-0.0272,-0.0228,-0.0197,-0.0139,-0.0132,-0.0033,-0.0062,-0.0013,0.0025,0.0029,0.0023,0.002,0.0025,0.0069,0.0068,0.0067,0.0066,0.0065,0,-0.0369,-0.0376,-0.0389,-0.0388,-0.0379,-0.0379,-0.0372,-0.034,-0.0328,-0.0278,-0.0261,-0.0188,-0.0153,-0.0079,-0.0007,-0.0015,0.0101,0.01,0.0139,0.0138,0.0127,0.0122,0.0181,0.0181,0.0181,0.018,0.018,0,-0.0391,-0.0402,-0.0404,-0.0412,-0.0421,-0.0404,-0.0405,-0.0384,-0.035,-0.0329,-0.0272,-0.0234,-0.0138,-0.0063,0.0003,0.0094,0.0113,0.0148,0.0163,0.0123,0.0117,0.0133,0.0127,0.0183,0.0183,0.0182,0.0181,0,-0.0415,-0.042,-0.0434,-0.0433,-0.0436,-0.0443,-0.0436,-0.043,-0.0396,-0.0364,-0.0349,-0.026,-0.0164,-0.0068,0.0056,0.0101,0.019,0.0221,0.0168,0.0177,0.0197,0.0189,0.0273,0.0274,0.0274,0.0274,0.0274,0,-0.0428,-0.044,-0.0455,-0.0468,-0.0472,-0.0481,-0.0485,-0.0459,-0.0445,-0.0378,-0.0358,-0.0261,-0.0195,-0.0025,0.0067,0.02,0.0215,0.0257,0.0232,0.0204,0.021,0.0201,0.0194,0.0275,0.0275,0.0275,0.0275,0,-0.0446,-0.0457,-0.0467,-0.0494,-0.051,-0.052,-0.0519,-0.0511,-0.047,-0.0442,-0.0349,-0.0254,-0.0143,-0.002,0.0084,0.0176,0.0225,0.0259,0.0259,0.0237,0.0206,0.021,0.0202,0.0276,0.0276,0.0275,0.0275,0,-0.0457,-0.047,-0.0488,-0.0508,-0.0534,-0.0543,-0.0542,-0.0508,-0.0485,-0.0405,-0.0374,-0.0248,-0.017,-0.0031,0.0064,0.0152,0.017,0.0189,0.0193,0.0193,0.014,0.0087,0.0143,0,0,0,0,0,-0.0458,-0.0473,-0.0497,-0.0517,-0.0545,-0.0556,-0.0554,-0.0543,-0.0505,-0.0441,-0.0402,-0.0294,-0.0135,-0.0061,0.0027,0.0051,0.0169,0.0154,0.0189,0.028,0.0279,0.0228,0,0,0,0,0,0,-0.046,-0.0485,-0.0494,-0.0521,-0.0538,-0.056,-0.0561,-0.0536,-0.0489,-0.0439,-0.0349,-0.0288,-0.0132,-0.0186,0.0024,0.0051,0.0082,0.0234,0.0235,0.0281,0.028,0.0279,0.0226,0,0,0,0,0]}]]